Погода в Бетине

Бразилия     19°57′27″S   44°08′45″W
темп.,
°C
ветер,
м/с
пор.,
м/с
влажн.,
%
обл.,
%
осадки,
мм/ч
давл.,
гПа
погр.,
м
27 февраля, сб
сб2700:00+19вюв1196100 6.3 101663
03:00+18с0196100 8.4 101453
06:00+18вюв1295100 2.9 101575
09:00+20всв1589100 3.0 1016414
12:00+24всв2570100 1.1 10161122
15:00+24сз2374100 2.0 1014444
18:00+21ююз1184100 0.4 101364
21:00+19в2381100 0.4 101580
28 февраля, вс
вс2800:00+18вюв238456 0.0 101587
03:00+18вюв258972 0.1 1014186
06:00+18в258799 0.0 1015159
09:00+22всв4873100 0.0 1016851
12:00+25св4659100 0.0 10151371
15:00+26ссв465995 0.0 10121592
18:00+22ссв258099 0.2 1012158
21:00+20в358098 0.3 1014131
1 марта, пн
пн100:00+18вюв258575 0.0 1015145
03:00+17вюв239062 0.0 101471
06:00+16вюв129231 0.0 101548
09:00+23всв357365 0.0 1016917
12:00+25ссв3567100 0.3 10151065
15:00+26ссв3466100 1.2 10121205
18:00+22ссв137942 0.3 101290
21:00+20в378062 0.4 1014218
2 марта, вт
вт200:00+19в2482100 0.0 1015104
03:00+18в2489100 0.0 101583
06:00+17всв239298 0.0 101658
09:00+22всв367391 0.0 1018890
12:00+26ссв355489 0.0 10171524
15:00+26с446060 0.0 10141421
18:00+22ссв23766 0.1 101384
21:00+19вюв13818 0.1 101651
3 марта, ср
ср300:00+18вюв13880 0.0 101765
03:00+17ююв129240 0.0 101648
06:00+18юв0190100 0.2 101838
09:00+23ссв2475100 0.6 1019582
12:00+26ссз336696 0.6 10181163
15:00+26ссз346978 2.1 10141101
18:00+23с128041 1.3 101474
21:00+20вюв128246 1.4 101752